Location: Izdebno
(52.6670°N, 16.2170°E)
Time: 13:10:17
(UTC+02:00)

A-11 Canister half - Pass Details

Date: 16 February 2023
Orbit: 1526 x 1682 km, 47.3° (Epoch: 26 March)

Event Time Altitude Azimuth Distance (km) Brightness Sun altitude
Rises 03:14:18 0° 235° (SW) 4,704 - -35.5°
Reaches altitude 10° 03:17:28 10° 231° (SW) 3,709 - -35.1°
Exits shadow 03:25:47 51° 170° (S) 1,849 9.2 -34.0°
Maximum altitude 03:26:22 52° 159° (SSE) 1,837 9.2 -33.9°
Drops below altitude 10° 03:35:15 10° 87° (E) 3,706 11.7 -32.7°
Sets 03:38:23 0° 82° (E) 4,699 12.6 -32.3°
